When you browse on this site, cookies collect data to enhance your experience and personalize the content and advertising you see.
Visit our Privacy Policy to learn more. By continuing to use the site, you agree to this use of cookies and data.
  • In Österreich
  • Länderverzeichnis
  • Für 7 Tage
  • Wassertemperatur
  • Satellitenkarten
  • Wetterkarte
  • News
  • Widgets
  • user-avatar
    Anmelden

    Stündliche Wetter Gryada

    Heute, 23 Juli, Dienstag

    Zeit Temperatur Niederschläge Wind Luftdruck Luftfeuchtigkeit
    00:00 +16°C° 0 mm 3 m/S 750 mmHg 95%
    01:00 +14°C° 0 mm 3 m/S 750 mmHg 96%
    02:00 +14°C° 0 mm 3 m/S 750 mmHg 98%
    03:00 +13°C° 0 mm 3 m/S 750 mmHg 97%
    04:00 +13°C° 0 mm 3 m/S 750 mmHg 97%
    05:00 +12°C° 0 mm 4 m/S 750 mmHg 97%
    06:00 +13°C° 0 mm 4 m/S 750 mmHg 95%
    07:00 +14°C° 0 mm 4 m/S 750 mmHg 93%
    08:00 +15°C° 0 mm 4 m/S 750 mmHg 92%
    09:00 +15°C° 0 mm 4 m/S 750 mmHg 89%
    10:00 +17°C° 0 mm 4 m/S 750 mmHg 87%
    11:00 +17°C° 0 mm 4 m/S 749 mmHg 84%
    12:00 +18°C° 0.1 mm 4 m/S 749 mmHg 83%
    13:00 +18°C° 0.1 mm 4 m/S 749 mmHg 82%
    14:00 +19°C° 0.1 mm 4 m/S 749 mmHg 81%
    15:00 +19°C° 0.1 mm 4 m/S 749 mmHg 81%
    16:00 +19°C° 0.1 mm 3 m/S 749 mmHg 81%
    17:00 +20°C° 0.1 mm 3 m/S 749 mmHg 82%
    18:00 +19°C° 0.4 mm 3 m/S 749 mmHg 85%
    19:00 +18°C° 0.4 mm 3 m/S 749 mmHg 88%
    20:00 +18°C° 0.4 mm 3 m/S 748 mmHg 91%
    21:00 +17°C° 0.3 mm 3 m/S 748 mmHg 92%
    22:00 +17°C° 0.3 mm 3 m/S 748 mmHg 94%
    23:00 +16°C° 0.3 mm 3 m/S 749 mmHg 96%

    Morgen, 24 Juli, Mittwoch

    Zeit Temperatur Niederschläge Wind Luftdruck Luftfeuchtigkeit
    00:00 +16°C° 0 mm 3 m/S 748 mmHg 96%
    01:00 +16°C° 0 mm 3 m/S 748 mmHg 96%
    02:00 +14°C° 0 mm 3 m/S 748 mmHg 97%
    03:00 +14°C° 0 mm 3 m/S 748 mmHg 97%
    04:00 +14°C° 0 mm 3 m/S 748 mmHg 97%
    05:00 +14°C° 0 mm 3 m/S 748 mmHg 97%
    06:00 +16°C° 0 mm 3 m/S 748 mmHg 95%
    07:00 +17°C° 0 mm 3 m/S 749 mmHg 92%
    08:00 +19°C° 0 mm 3 m/S 749 mmHg 89%
    09:00 +20°C° 0 mm 4 m/S 749 mmHg 80%
    10:00 +22°C° 0 mm 4 m/S 749 mmHg 70%
    11:00 +25°C° 0 mm 4 m/S 749 mmHg 60%
    12:00 +25°C° 0 mm 4 m/S 749 mmHg 58%
    13:00 +26°C° 0 mm 4 m/S 749 mmHg 57%
    14:00 +26°C° 0 mm 4 m/S 749 mmHg 55%
    15:00 +26°C° 0 mm 4 m/S 749 mmHg 57%
    16:00 +26°C° 0 mm 3 m/S 749 mmHg 59%
    17:00 +26°C° 0 mm 3 m/S 749 mmHg 61%
    18:00 +24°C° 0 mm 3 m/S 749 mmHg 67%
    19:00 +21°C° 0 mm 2 m/S 749 mmHg 74%
    20:00 +19°C° 0 mm 2 m/S 749 mmHg 80%
    21:00 +18°C° 0 mm 2 m/S 749 mmHg 83%
    22:00 +17°C° 0 mm 2 m/S 750 mmHg 86%
    23:00 +16°C° 0 mm 2 m/S 750 mmHg 89%

    übermorgen, 25 Juli, Donnerstag

    Zeit Temperatur Niederschläge Wind Luftdruck Luftfeuchtigkeit
    00:00 +16°C° 0 mm 2 m/S 750 mmHg 90%
    01:00 +15°C° 0 mm 2 m/S 750 mmHg 92%
    02:00 +15°C° 0 mm 2 m/S 750 mmHg 93%
    03:00 +15°C° 0 mm 2 m/S 750 mmHg 92%
    04:00 +15°C° 0 mm 2 m/S 750 mmHg 91%
    05:00 +14°C° 0 mm 2 m/S 750 mmHg 90%
    06:00 +16°C° 0 mm 2 m/S 750 mmHg 85%
    07:00 +18°C° 0 mm 2 m/S 750 mmHg 80%
    08:00 +20°C° 0 mm 2 m/S 750 mmHg 75%
    09:00 +21°C° 0.1 mm 2 m/S 750 mmHg 70%
    10:00 +24°C° 0.1 mm 2 m/S 750 mmHg 65%
    11:00 +25°C° 0.1 mm 3 m/S 750 mmHg 60%
    12:00 +25°C° 0.7 mm 3 m/S 750 mmHg 62%
    13:00 +25°C° 0.7 mm 3 m/S 750 mmHg 63%
    14:00 +25°C° 0.7 mm 3 m/S 749 mmHg 64%
    15:00 +25°C° 0.7 mm 3 m/S 749 mmHg 67%
    16:00 +24°C° 0.7 mm 3 m/S 749 mmHg 70%
    17:00 +24°C° 0.7 mm 3 m/S 748 mmHg 74%
    18:00 +21°C° 0.4 mm 3 m/S 748 mmHg 79%
    19:00 +20°C° 0.4 mm 2 m/S 748 mmHg 84%
    20:00 +19°C° 0.4 mm 2 m/S 748 mmHg 90%
    21:00 +18°C° 0 mm 2 m/S 748 mmHg 91%
    22:00 +17°C° 0 mm 2 m/S 748 mmHg 93%
    23:00 +16°C° 0 mm 2 m/S 748 mmHg 94%

    26 Juli, Freitag

    Zeit Temperatur Niederschläge Wind Luftdruck Luftfeuchtigkeit
    00:00 +16°C° 0 mm 2 m/S 748 mmHg 95%
    01:00 +15°C° 0 mm 2 m/S 748 mmHg 96%
    02:00 +15°C° 0 mm 2 m/S 748 mmHg 97%
    03:00 +14°C° 0 mm 2 m/S 748 mmHg 97%
    04:00 +14°C° 0 mm 2 m/S 748 mmHg 97%
    05:00 +14°C° 0 mm 2 m/S 748 mmHg 98%
    06:00 +15°C° 0 mm 2 m/S 748 mmHg 95%
    07:00 +16°C° 0 mm 3 m/S 747 mmHg 92%
    08:00 +17°C° 0 mm 3 m/S 747 mmHg 90%
    09:00 +18°C° 0 mm 3 m/S 747 mmHg 88%
    10:00 +18°C° 0 mm 3 m/S 747 mmHg 85%
    11:00 +19°C° 0 mm 4 m/S 747 mmHg 83%
    12:00 +20°C° 0.1 mm 4 m/S 747 mmHg 79%
    13:00 +22°C° 0.1 mm 4 m/S 747 mmHg 74%
    14:00 +23°C° 0.1 mm 4 m/S 747 mmHg 70%
    15:00 +22°C° 0.6 mm 4 m/S 747 mmHg 74%
    16:00 +22°C° 0.6 mm 4 m/S 747 mmHg 78%
    17:00 +22°C° 0.6 mm 4 m/S 747 mmHg 83%
    18:00 +21°C° 0.5 mm 4 m/S 747 mmHg 86%
    19:00 +20°C° 0.5 mm 4 m/S 747 mmHg 89%
    20:00 +19°C° 0.5 mm 3 m/S 747 mmHg 92%
    21:00 +18°C° 0.3 mm 3 m/S 747 mmHg 94%
    22:00 +18°C° 0.3 mm 3 m/S 747 mmHg 95%
    23:00 +17°C° 0.3 mm 3 m/S 747 mmHg 97%

    27 Juli, Samstag

    Zeit Temperatur Niederschläge Wind Luftdruck Luftfeuchtigkeit
    00:00 +17°C° 0 mm 3 m/S 746 mmHg 97%
    01:00 +17°C° 0 mm 3 m/S 746 mmHg 98%
    02:00 +17°C° 0 mm 2 m/S 746 mmHg 98%
    03:00 +17°C° 0.5 mm 2 m/S 746 mmHg 98%
    04:00 +17°C° 0.5 mm 2 m/S 746 mmHg 98%
    05:00 +17°C° 0.5 mm 2 m/S 746 mmHg 98%
    06:00 +17°C° 0.7 mm 2 m/S 746 mmHg 98%
    07:00 +17°C° 0.7 mm 2 m/S 746 mmHg 98%
    08:00 +17°C° 0.7 mm 2 m/S 746 mmHg 98%
    09:00 +18°C° 0.6 mm 2 m/S 746 mmHg 97%
    10:00 +19°C° 0.6 mm 2 m/S 746 mmHg 96%
    11:00 +19°C° 0.6 mm 2 m/S 746 mmHg 95%
    12:00 +20°C° 0.9 mm 3 m/S 745 mmHg 92%
    13:00 +21°C° 0.9 mm 4 m/S 745 mmHg 90%
    14:00 +22°C° 0.9 mm 4 m/S 745 mmHg 87%
    15:00 +22°C° 1.1 mm 4 m/S 745 mmHg 88%
    16:00 +21°C° 1.1 mm 4 m/S 744 mmHg 89%
    17:00 +21°C° 1.1 mm 4 m/S 744 mmHg 90%
    18:00 +20°C° 0.3 mm 4 m/S 744 mmHg 91%
    19:00 +20°C° 0.3 mm 3 m/S 744 mmHg 93%
    20:00 +19°C° 0.3 mm 3 m/S 744 mmHg 95%
    21:00 +19°C° 0 mm 3 m/S 744 mmHg 95%
    22:00 +18°C° 0 mm 2 m/S 745 mmHg 96%
    23:00 +18°C° 0 mm 2 m/S 745 mmHg 97%

    28 Juli, Sonntag

    Zeit Temperatur Niederschläge Wind Luftdruck Luftfeuchtigkeit
    00:00 +18°C° 0 mm 2 m/S 745 mmHg 97%
    01:00 +17°C° 0 mm 2 m/S 745 mmHg 97%
    02:00 +17°C° 0 mm 2 m/S 745 mmHg 97%
    03:00 +17°C° 0 mm 2 m/S 745 mmHg 97%
    04:00 +17°C° 0 mm 2 m/S 745 mmHg 97%
    05:00 +17°C° 0 mm 2 m/S 745 mmHg 97%
    06:00 +18°C° 0 mm 3 m/S 745 mmHg 94%
    07:00 +20°C° 0 mm 3 m/S 745 mmHg 92%
    08:00 +21°C° 0 mm 3 m/S 745 mmHg 89%
    09:00 +22°C° 0.5 mm 3 m/S 745 mmHg 83%
    10:00 +25°C° 0.5 mm 4 m/S 745 mmHg 78%
    11:00 +26°C° 0.5 mm 4 m/S 745 mmHg 72%
    12:00 +27°C° 0.1 mm 4 m/S 745 mmHg 68%
    13:00 +28°C° 0.1 mm 4 m/S 744 mmHg 64%
    14:00 +28°C° 0.1 mm 4 m/S 744 mmHg 60%
    15:00 +28°C° 0.4 mm 4 m/S 744 mmHg 65%
    16:00 +27°C° 0.4 mm 4 m/S 744 mmHg 70%
    17:00 +27°C° 0.4 mm 3 m/S 744 mmHg 75%
    18:00 +25°C° 0.1 mm 3 m/S 744 mmHg 80%
    19:00 +24°C° 0.1 mm 3 m/S 744 mmHg 84%
    20:00 +21°C° 0.1 mm 3 m/S 744 mmHg 89%
    21:00 +20°C° 0 mm 3 m/S 745 mmHg 91%
    22:00 +19°C° 0 mm 3 m/S 745 mmHg 94%
    23:00 +18°C° 0 mm 3 m/S 745 mmHg 96%
    Mehr zeigen